Home   Weather   Alice Springs   Past weeks

Flag for Australia Past Weather in Alice Springs, Northern Territory, Australia — Yesterday and Last 2 Weeks

Now
79 °F

Clear.


Feels Like: 81 °F
Forecast: 75 / 92 °F
Wind: 7 mph from East

Location: Alice Springs Aerodrome

Current Time: Jan 17, 2017 at 2:54:24 am

Latest Report: Jan 17, 2017 at 2:30 am


Visibility: N/A

Pressure: 29.74 "Hg (27.83 "Hg at 581m altitude)

Humidity: 74%

Dew Point: 70 °F

Location of Alice SpringsLocation

Past Weather in Alice Springs — Graph

°F

Alice Springs Temperature Yesterday

Maximum temperature yesterday: 97 °F (at 3:30 pm)
Minimum temperature yesterday: 68 °F (at 5:00 am)
Average temperature yesterday: 83 °F

High & Low Weather Summary for the Past Weeks

 TemperatureHumidityPressure
High102 °F (Jan 9, 3:00 pm)100% (Jan 14, 6:39 am)29.98 "Hg (Jan 14, 6:39 am)
Low64 °F (Jan 3, 5:30 am)18% (Jan 4, 11:30 am)29.62 "Hg (Jan 6, 3:30 pm)
Average84 °F53%29.77 "Hg
* Reported Jan 2 1:30 am — Jan 17 2:00 am, Alice Springs, Weather by CustomWeather, © 2017

Note: Actual official high and low records may vary slightly from our data, if they occured in-between our weather recording intervals... More about our weather records

Advertising

Alice Springs Weather History for the Previous 24 Hours

Scroll right to see more
 ConditionsComfort  
Time TempWeatherWind HumidityBarometerVisibility
2:00 am
Tue, Jan 17
81 °FClear.6 mph70%29.74 "HgN/A
1:30 am81 °FClear.5 mph74%29.74 "HgN/A
1:00 am82 °FPartly cloudy.6 mph66%29.74 "HgN/A
12:30 am82 °FDrizzle. Mostly cloudy.12 mph66%29.77 "HgN/A
12:00 am81 °FPassing clouds.2 mph79%29.77 "HgN/A
11:30 pm
Mon, Jan 16
82 °FPassing clouds.No wind70%29.77 "HgN/A
11:00 pm82 °FClear.No wind74%29.77 "HgN/A
10:30 pm82 °FClear.3 mph66%29.77 "HgN/A
10:00 pm82 °FClear.6 mph62%29.74 "HgN/A
9:30 pm84 °FClear.6 mph55%29.74 "HgN/A
9:00 pm84 °FClear.8 mph55%29.74 "HgN/A
8:30 pm86 °FClear.7 mph52%29.74 "HgN/A
8:00 pm88 °FPassing clouds.6 mph46%29.74 "HgN/A
7:30 pm91 °FOvercast.6 mph38%29.74 "HgN/A
7:00 pm93 °FSunny.8 mph34%29.74 "HgN/A
6:30 pm95 °FSunny.10 mph30%29.71 "HgN/A
6:00 pm95 °FSunny.16 mph30%29.71 "HgN/A
5:30 pm95 °FSunny.14 mph28%29.71 "HgN/A
5:00 pm97 °FSunny.13 mph25%29.71 "HgN/A
4:30 pm97 °FSunny.10 mph25%29.71 "HgN/A
4:00 pm97 °FSunny.17 mph23%29.74 "HgN/A
3:30 pm97 °FSunny.13 mph25%29.74 "HgN/A
3:00 pm95 °FPassing clouds.10 mph25%29.74 "HgN/A
2:30 pm95 °FSunny.9 mph26%29.77 "Hg10 mi
2:00 pm93 °FSunny.10 mph28%29.77 "Hg10 mi
1:30 pm93 °FSunny.10 mph30%29.80 "Hg10 mi
1:00 pm91 °FSunny.13 mph32%29.80 "Hg10 mi
12:30 pm91 °FSunny.10 mph28%29.80 "Hg10 mi
11:30 am90 °FSunny.9 mph26%29.83 "HgN/A
11:00 am88 °FPassing clouds.9 mph25%29.86 "HgN/A
10:30 am86 °FSunny.8 mph27%29.86 "Hg10 mi
9:30 am84 °FPassing clouds.7 mph27%29.86 "HgN/A
9:00 am82 °FSunny.6 mph28%29.86 "Hg10 mi
8:30 am79 °FPassing clouds.5 mph51%29.86 "HgN/A
8:00 am77 °FPassing clouds.2 mph65%29.86 "HgN/A
7:30 am73 °FSunny.5 mph78%29.86 "HgN/A
7:00 am72 °FSunny.5 mph88%29.86 "HgN/A
6:30 am70 °FSunny.6 mph88%29.86 "HgN/A
6:00 am70 °FClear.5 mph88%29.83 "HgN/A
5:30 am68 °FClear.5 mph100%29.83 "HgN/A
5:00 am68 °FClear.6 mph100%29.83 "HgN/A
4:30 am70 °FClear.6 mph94%29.83 "HgN/A
4:00 am70 °FClear.5 mph94%29.83 "HgN/A
3:30 am72 °FClear.6 mph88%29.83 "HgN/A
3:00 am72 °FClear.5 mph88%29.83 "HgN/A
2:30 am72 °FClear.5 mph94%29.83 "HgN/A
2:00 am72 °FClear.5 mph94%29.83 "HgN/A
Weather by CustomWeather, © 2017

See weather overviewHow to use our weather pages